Location: Peterborough
(44.3091°N, 78.3197°W)
Time: 13:30:43
(UTC-04:00)

Transit 2A Rocket - Pass Details

Date: 25 March 2023
Orbit: 584 x 914 km, 66.7° (Epoch: 02 June)

Event Time Altitude Azimuth Distance (km) Brightness Sun altitude
Rises 21:19:33 0° 326° (NNW) 3,557 9.4 -19.5°
Reaches altitude 10° 21:22:06 10° 326° (NW) 2,610 8.6 -19.9°
Maximum altitude 21:28:13 78° 241° (WSW) 918 5.4 -20.9°
Enters shadow 21:31:08 32° 160° (SSE) 1,476 6.1 -21.4°
